Home > Time Zones > World Clock > Weather > India > Surat > Past weeks

Flag for India Weather past 2 weeks in Surat, Gujarat, India

Now
81 °F

Scattered clouds.


Feels Like: 85 °F
Forecast: 79 / 87 °F
Wind: 8 mph from West

Location: Ahmadabad Airport

Current Time: Sep 1, 2015 at 7:44:01 AM

Latest Report: Sep 1, 2015 at 7:10 AM


Visibility: 2 mi

Pressure: 29.71 "Hg

Humidity: 79%

Dew point: 73 °F

Location of SuratLocation

Historic Weather in Surat — Graph

°F

Surat temperature yesterday

Maximum temperature yesterday: 95 °F (at 3:10 PM)
Minimum temperature yesterday: 82 °F (at 3:40 AM)
Average temperature yesterday: 87 °F

Past Weeks' High & Low Weather Summary

 TemperatureHumidityPressure
High99 °F (Aug 29, 4:40 PM)94% (Aug 18, 6:10 PM)29.83 "Hg (Aug 18, 6:10 PM)
Low79 °F (Aug 18, 6:10 PM)44% (Aug 21, 4:40 PM)29.62 "Hg (Aug 17, 3:40 PM)
Average87 °F70%29.71 "Hg
* Reported Aug 17 5:40 AM — Sep 1 6:10 AM, Surat, Weather by CustomWeather, © 2015

Note: Actual official high and low records may vary slightly from our data, if they occured in-between our weather recording intervals... More about our weather records

Advertising

Surat weather history for previous 24 hours

 ConditionsComfort  
Time TempWeatherWind HumidityBarometerVisibility
6:10 AM
Tue, Sep 1
82 °FPassing clouds.7 mph79%29.71 "Hg2 mi
5:40 AM82 °FPassing clouds.7 mph79%29.71 "Hg2 mi
4:10 AM84 °FPassing clouds.10 mph66%29.71 "Hg2 mi
2:40 AM82 °FFog.6 mph84%29.68 "Hg2 mi
2:10 AM81 °FFog.3 mph89%29.71 "Hg2 mi
1:40 AM82 °FFog.5 mph84%29.71 "Hg2 mi
1:10 AM82 °FHaze.5 mph84%29.71 "Hg2 mi
12:40 AM84 °FHaze.5 mph79%29.71 "Hg2 mi
12:10 AM84 °FPassing clouds.6 mph79%29.74 "Hg2 mi
11:40 PM
Mon, Aug 31
84 °FPassing clouds.6 mph79%29.74 "Hg2 mi
11:10 PM84 °FHaze.6 mph79%29.74 "Hg2 mi
9:40 PM84 °FPassing clouds.7 mph79%29.74 "Hg2 mi
9:10 PM84 °FPassing clouds.7 mph79%29.71 "Hg2 mi
8:40 PM84 °FHaze.7 mph79%29.71 "Hg2 mi
8:10 PM86 °FHaze.6 mph75%29.71 "Hg2 mi
7:40 PM86 °FHaze.7 mph70%29.68 "Hg2 mi
7:10 PM88 °FHaze.6 mph70%29.68 "Hg2 mi
6:10 PM90 °FPassing clouds.7 mph67%29.68 "Hg4 mi
5:10 PM95 °FPartly sunny.5 mph56%29.65 "Hg4 mi
4:40 PM93 °FPartly sunny.3 mph59%29.65 "Hg4 mi
4:10 PM95 °FPartly sunny.6 mph56%29.65 "Hg4 mi
3:40 PM95 °FScattered clouds.3 mph56%29.68 "Hg4 mi
3:10 PM95 °FScattered clouds.3 mph56%29.68 "Hg4 mi
2:40 PM93 °FScattered clouds.5 mph59%29.71 "Hg4 mi
2:10 PM93 °FScattered clouds.5 mph59%29.71 "Hg4 mi
1:10 PM93 °FScattered clouds.7 mph59%29.74 "Hg3 mi
12:40 PM91 °FScattered clouds.7 mph63%29.77 "Hg3 mi
11:40 AM90 °FScattered clouds.7 mph67%29.77 "Hg3 mi
10:40 AM88 °FScattered clouds.8 mph70%29.80 "Hg3 mi
9:10 AM84 °FBroken clouds.9 mph74%29.80 "Hg2 mi
8:40 AM82 °FBroken clouds.6 mph79%29.77 "Hg2 mi
8:10 AM82 °FBroken clouds.5 mph84%29.77 "Hg2 mi
7:40 AM82 °FDrizzle. Broken clouds.5 mph79%29.77 "Hg2 mi
7:10 AM82 °FDrizzle. Broken clouds.6 mph79%29.74 "Hg2 mi
Weather by CustomWeather, © 2015

See weather overviewHow to use our weather pages